OBJECT A, 65995

Orbit data source: Space-Track

You're viewing an Uncataloged Satellite

Recently launched and/or uncataloged satellites may have evolving metadata. Metadata may include but not limited to: Owner, Maufacturer, Bus, Motor, and Mission.

OBJECT A, 65995 is a satellite owned by Zhongguo Xingwang (CN) in LEO that was launched on Thu, 16 Oct 2025 UTC via a CHANG ZHENG 8A launch vehicle from the Wenchang Satellite Launch Center (WSC). Unknown objects in Earth's orbit typically refer to objects detected orbiting the Earth but have not yet been identified or cataloged. These objects could be anything from previously untracked satellites, spent rocket stages, debris from satellite collisions, or even natural meteoroids temporarily captured by Earth's gravity.

Loading next visibility...
Identifier
65995, 2025-231A
Orbit
LEO
Country
Flag of CNCN / PRC
Related business
Manufacturer
CAST
Mission
Operational spacecraft
Bus & Motor
GUOWANG C, Unknown motor
Mass
~800 kg wet, ~800 kg dry
Launch date (UTC)
2025-10-16 (4 weeks ago)
Launch vehicle
CHANG ZHENG 8A
Launch site
Wenchang Satellite Launch Center (WSC)
Object type
Unknown
Shape & HBR
Unknown shape, 1.1 m
Radar Cross Section
RCS unknown

Expand to show TLE details & history
Last TLE update: 2 days ago

TLE from 2 days ago
0 OBJECT A
1 65995U 25231A   25311.87829185  .00000097  00000-0  15900-3 0  9991
2 65995  49.9976 264.8125 0003217 336.6680  23.4077 14.02946432  3217
Epoch: 2025-11-07T21:04Z
TLE epoch observation values (Epoch: 2025-11-07T21:04:44.415Z)
Latitude
-0.00008°
Longitude
-98.68856°
Altitude
881.99 km
Speed
7.414 km/s
True Right ascension
17h 39m 14s
True Declination
0° 00' 00"
Sunlit
Object was in daylight at epoch
Visualization orbit readout
Latitude
Unknown
Longitude
Unknown
Altitude
Unknown
Speed
Unknown
Apparent Right ascension
Unknown
Apparent Declination
Unknown
Sunlit
N/A
Visualization observer readout
Local Sidereal Time
03:23:47
Azimuth
Unknown
Elevation
Unknown
Doppler factor
Unknown
Orbital elements
Apogee altitude
886.678 km
Perigee altitude
882.005 km
Semi-major axis
7,262.478 km
Eccentricity
0.00032
Inclination
49.9976°
RAAN
264.8125°
Arg. of periapsis
336.668°
True anomaly
23.42235°
Mean anomaly
23.4077°
Eccentric anomaly
23.41502°
Mean motion
3.50684 °/min
Orbital period
102.66 mins
BSTAR
0.000159
Loading maneuver chart data...
Computing Atmospheric mass density...
Loading historical data...
Loading historical data...
Loading historical data...
Loading historical data...
Loading historical data...
Loading historical data...
Loading historical data...

Documentation

Showing up to 5 results
|